This is the latest recevied weather packets stored in our database for station/object ZB2YN-13. If no packets are shown the sender has not sent any weather packets the latest 10 day(s).
| Time | Temp. | Humidity | Pressure | Rain* | Wind** | Luminosity | Snow |
|---|---|---|---|---|---|---|---|
| 1777604406 | 15.56° C | 84% | 1010.1 hPa | 0 mm | - | - | - |
| 1777600805 | 16.11° C | 78% | 1010.2 hPa | 0 mm | - | - | - |
| 1777597205 | 16.11° C | 76% | 1010.4 hPa | 0 mm | - | - | - |
| 1777593606 | 16.67° C | 72% | 1010.7 hPa | 0 mm | - | - | - |
| 1777590006 | 17.22° C | 71% | 1010.9 hPa | 0 mm | - | - | - |
| 1777586406 | 17.78° C | 71% | 1010.3 hPa | 0 mm | - | - | - |
| 1777582805 | 18.33° C | 73% | 1009.9 hPa | 0 mm | - | - | - |
| 1777579205 | 18.89° C | 70% | 1008.7 hPa | 0 mm | - | - | - |
| 1777575606 | 19.44° C | 68% | 1008.2 hPa | 0 mm | - | - | - |
| 1777572006 | 20° C | 63% | 1007.7 hPa | 0 mm | - | - | - |
| 1777568406 | 20.56° C | 64% | 1007.9 hPa | 0 mm | - | - | - |
| 1777564805 | 21.11° C | 65% | 1008 hPa | 0 mm | - | - | - |
| 1777561205 | 21.11° C | 68% | 1008.1 hPa | 0 mm | - | - | - |
| 1777557606 | 21.11° C | 71% | 1008.4 hPa | 0 mm | - | - | - |
| 1777554006 | 20.56° C | 71% | 1008.1 hPa | 0 mm | - | - | - |
| 1777550405 | 21.11° C | 68% | 1008.3 hPa | 0 mm | - | - | - |
| 1777546805 | 21.11° C | 68% | 1008.6 hPa | 0 mm | - | - | - |
| 1777543205 | 20° C | 69% | 1008.7 hPa | 0 mm | - | - | - |
| 1777539606 | 18.33° C | 71% | 1008.3 hPa | 0 mm | - | - | - |
| 1777536006 | 17.22° C | 76% | 1008.3 hPa | 0 mm | - | - | - |
| 1777532405 | 14.44° C | 87% | 1008.1 hPa | 0 mm | - | - | - |
| 1777528805 | 15° C | 84% | 1007.7 hPa | 0 mm | - | - | - |
| 1777525205 | 14.44° C | 86% | 1007.8 hPa | 0 mm | - | - | - |
| 1777521606 | 15° C | 85% | 1007.6 hPa | 0 mm | - | - | - |
| 1777518006 | 15.56° C | 84% | 1007.3 hPa | 0 mm | - | - | - |
* Rain latest hour (hover to see other rain measurements)
** Current wind speed in m/s (hover to see current wind gust speed)